| time (UTC) | temp F | wind direction | speed knots | gust knots | rain 1hr in | rain 24hr in | rain mn in | humidity % | barometer mb |
| 20260509191845 | 79 | 165 | 0.9 | 5.2 | 0.00 | 0.00 | 0.00 | 46 | 1004.8 |
| 20260509191342 | 78 | 157 | 0.9 | 6.1 | 0.00 | 0.00 | 0.00 | 46 | 1004.9 |
| 20260509190841 | 78 | 219 | 0.9 | 4.3 | 0.00 | 0.00 | 0.00 | 47 | 1005.1 |
| 20260509190339 | 79 | 30 | 0.0 | 4.3 | 0.00 | 0.00 | 0.00 | 45 | 1005.2 |
| 20260509190105 | 79 | 203 | 0.0 | 1.7 | 0.00 | 0.00 | 0.00 | 47 | 1005.3 |
| 20260509185336 | 79 | 162 | 0.0 | 2.6 | 0.00 | 0.00 | 0.00 | 49 | 1005.3 |
| 20260509184836 | 78 | 176 | 0.9 | 2.6 | 0.00 | 0.00 | 0.00 | 48 | 1005.3 |
| 20260509184334 | 78 | 263 | 0.0 | 2.6 | 0.00 | 0.00 | 0.00 | 49 | 1005.3 |
| 20260509183833 | 78 | 17 | 0.9 | 6.1 | 0.00 | 0.00 | 0.00 | 49 | 1005.4 |
| 20260509183332 | 77 | 40 | 0.9 | 6.1 | 0.00 | 0.00 | 0.00 | 50 | 1005.5 |
| 20260509182831 | 76 | 3 | 0.9 | 3.5 | 0.00 | 0.00 | 0.00 | 50 | 1005.6 |
| 20260509182325 | 76 | 175 | 0.9 | 3.5 | 0.00 | 0.00 | 0.00 | 48 | 1005.7 |
| 20260509181819 | 77 | 230 | 0.9 | 5.2 | 0.00 | 0.00 | 0.00 | 48 | 1005.7 |
| 20260509181804 | 78 | 2 | 0.9 | 5.2 | 0.00 | 0.00 | 0.00 | 46 | 1005.9 |
| 20260509180813 | 79 | 200 | 0.9 | 6.1 | 0.00 | 0.00 | 0.00 | 45 | 1005.9 |
| 20260509180314 | 79 | 20 | 0.9 | 6.1 | 0.00 | 0.00 | 0.00 | 45 | 1005.9 |
| 20260509175812 | 80 | 13 | 0.9 | 4.3 | 0.00 | 0.00 | 0.00 | 45 | 1005.9 |
| 20260509175313 | 79 | 134 | 0.9 | 3.5 | 0.00 | 0.00 | 0.00 | 47 | 1005.9 |
| 20260509174812 | 79 | 208 | 0.9 | 4.3 | 0.00 | 0.00 | 0.00 | 46 | 1006.0 |
| 20260509174312 | 79 | 54 | 0.9 | 5.2 | 0.00 | 0.00 | 0.00 | 46 | 1006.0 |
| 20260509173814 | 79 | 345 | 0.9 | 5.2 | 0.00 | 0.00 | 0.00 | 45 | 1006.0 |
| 20260509173312 | 79 | 203 | 0.9 | 4.3 | 0.00 | 0.00 | 0.00 | 47 | 1005.8 |
| 20260509173033 | 79 | 278 | 0.9 | 2.6 | 0.00 | 0.00 | 0.00 | 48 | 1005.9 |
| 20260509172528 | 78 | 45 | 0.9 | 2.6 | 0.00 | 0.00 | 0.00 | 49 | 1006.1 |
| 20260509171811 | 77 | 297 | 0.9 | 1.7 | 0.00 | 0.00 | 0.00 | 49 | 1006.1 |
| 20260509171310 | 77 | 154 | 0.9 | 2.6 | 0.00 | 0.00 | 0.00 | 49 | 1006.2 |
| 20260509170810 | 77 | 57 | 0.9 | 3.5 | 0.00 | 0.00 | 0.00 | 49 | 1006.3 |
| 20260509170308 | 77 | 240 | 0.9 | 3.5 | 0.00 | 0.00 | 0.00 | 50 | 1006.5 |
| 20260509165809 | 77 | 225 | 0.9 | 2.6 | 0.00 | 0.00 | 0.00 | 50 | 1006.5 |
| 20260509165311 | 77 | 350 | 0.9 | 3.5 | 0.00 | 0.00 | 0.00 | 49 | 1006.6 |
| 20260509165024 | 76 | 214 | 0.9 | 5.2 | 0.00 | 0.00 | 0.00 | 51 | 1006.7 |
| 20260509164259 | 76 | 120 | 0.9 | 5.2 | 0.00 | 0.00 | 0.00 | 50 | 1006.9 |
| 20260509163754 | 76 | 117 | 0.9 | 3.5 | 0.00 | 0.00 | 0.00 | 50 | 1006.9 |
| 20260509163248 | 76 | 145 | 0.9 | 4.3 | 0.00 | 0.00 | 0.00 | 51 | 1006.8 |
| 20260509162742 | 75 | 90 | 1.7 | 4.3 | 0.00 | 0.00 | 0.00 | 52 | 1006.7 |
| 20260509162236 | 74 | 4 | 0.9 | 4.3 | 0.00 | 0.00 | 0.00 | 52 | 1006.7 |
| 20260509161730 | 74 | 68 | 0.9 | 3.5 | 0.00 | 0.00 | 0.00 | 53 | 1006.8 |
| 20260509161224 | 73 | 162 | 0.9 | 3.5 | 0.00 | 0.00 | 0.00 | 52 | 1006.8 |
| 20260509160945 | 73 | 334 | 0.9 | 5.2 | 0.00 | 0.00 | 0.00 | 53 | 1007.0 |
| 20260509160211 | 72 | 205 | 0.9 | 5.2 | 0.00 | 0.00 | 0.00 | 53 | 1007.1 |
| 20260509155706 | 72 | 31 | 0.9 | 4.3 | 0.00 | 0.00 | 0.00 | 53 | 1007.0 |
| 20260509155200 | 72 | 168 | 0.9 | 4.3 | 0.00 | 0.00 | 0.00 | 51 | 1007.1 |
| 20260509154654 | 72 | 169 | 0.9 | 2.6 | 0.00 | 0.00 | 0.00 | 52 | 1007.2 |
| 20260509154148 | 72 | 197 | 0.9 | 3.5 | 0.00 | 0.00 | 0.00 | 54 | 1007.3 |
| 20260509153641 | 72 | 136 | 0.9 | 3.5 | 0.00 | 0.00 | 0.00 | 55 | 1007.3 |
| 20260509153357 | 71 | 155 | 0.0 | 2.6 | 0.00 | 0.00 | 0.00 | 56 | 1007.3 |
| 20260509152630 | 71 | 217 | 0.9 | 5.2 | 0.00 | 0.00 | 0.00 | 60 | 1007.3 |
| 20260509152124 | 70 | 153 | 0.9 | 5.2 | 0.00 | 0.00 | 0.00 | 59 | 1007.3 |
| 20260509151618 | 70 | 215 | 0.9 | 3.5 | 0.00 | 0.00 | 0.00 | 59 | 1007.6 |
| 20260509151112 | 69 | 335 | 0.9 | 2.6 | 0.00 | 0.00 | 0.00 | 60 | 1007.6 |
| 20260509150607 | 69 | 58 | 0.9 | 3.5 | 0.00 | 0.00 | 0.00 | 60 | 1007.6 |
| 20260509145554 | 69 | 230 | 0.0 | 2.6 | 0.00 | 0.00 | 0.00 | 62 | 1007.7 |
| 20260509145047 | 68 | 52 | 0.0 | 1.7 | 0.00 | 0.00 | 0.00 | 62 | 1007.8 |
| 20260509144541 | 68 | 205 | 0.0 | 2.6 | 0.00 | 0.00 | 0.00 | 65 | 1007.9 |
| 20260509144036 | 68 | 275 | 0.0 | 2.6 | 0.00 | 0.00 | 0.00 | 64 | 1008.1 |
| 20260509143529 | 67 | 355 | 0.0 | 2.6 | 0.00 | 0.00 | 0.00 | 66 | 1008.3 |
| 20260509143024 | 67 | 22 | 0.9 | 4.3 | 0.00 | 0.00 | 0.00 | 66 | 1008.3 |
| 20260509142518 | 67 | 78 | 0.0 | 4.3 | 0.00 | 0.00 | 0.00 | 66 | 1008.4 |
| 20260509142011 | 67 | 330 | 0.0 | 2.6 | 0.00 | 0.00 | 0.00 | 67 | 1008.4 |
| 20260509141505 | 66 | 221 | 0.0 | 2.6 | 0.00 | 0.00 | 0.00 | 67 | 1008.5 |
| 20260509141000 | 66 | 195 | 0.0 | 2.6 | 0.00 | 0.00 | 0.00 | 68 | 1008.5 |
| 20260509140710 | 66 | 22 | 0.0 | 2.6 | 0.00 | 0.00 | 0.00 | 69 | 1008.4 |
| 20260509140210 | 65 | 221 | 0.0 | 3.5 | 0.00 | 0.00 | 0.00 | 70 | 1008.3 |
| 20260509135707 | 65 | 353 | 0.0 | 3.5 | 0.00 | 0.00 | 0.00 | 70 | 1008.4 |
| 20260509135152 | 65 | 288 | 0.0 | 0.9 | 0.00 | 0.00 | 0.00 | 72 | 1008.4 |
| 20260509134430 | 64 | 28 | 0.0 | 0.9 | 0.00 | 0.00 | 0.00 | 73 | 1008.5 |
| 20260509133923 | 64 | 28 | 0.9 | 4.3 | 0.00 | 0.00 | 0.00 | 73 | 1008.7 |
| 20260509133418 | 64 | 91 | 0.9 | 4.3 | 0.00 | 0.00 | 0.00 | 73 | 1008.9 |
| 20260509132911 | 63 | 345 | 0.0 | 2.6 | 0.00 | 0.00 | 0.00 | 74 | 1008.9 |
| 20260509132405 | 63 | 151 | 0.0 | 2.6 | 0.00 | 0.00 | 0.00 | 76 | 1008.9 |
| 20260509131900 | 63 | 229 | 0.0 | 0.0 | 0.00 | 0.00 | 0.00 | 77 | 1009.0 |
| 20260509131354 | 62 | 178 | 0.0 | 0.0 | 0.00 | 0.00 | 0.00 | 78 | 1008.9 |
| 20260509130847 | 62 | 174 | 0.0 | 1.7 | 0.00 | 0.00 | 0.00 | 79 | 1008.8 |
| 20260509130342 | 61 | 153 | 0.0 | 1.7 | 0.00 | 0.00 | 0.00 | 79 | 1008.8 |
| 20260509125330 | 60 | 147 | 0.0 | 0.9 | 0.00 | 0.00 | 0.00 | 81 | 1008.6 |
| 20260509124824 | 60 | 146 | 0.0 | 0.9 | 0.00 | 0.00 | 0.00 | 81 | 1008.8 |
| 20260509124318 | 59 | 133 | 0.0 | 0.9 | 0.00 | 0.00 | 0.00 | 82 | 1008.8 |
| 20260509123812 | 59 | 96 | 0.0 | 0.9 | 0.00 | 0.00 | 0.00 | 83 | 1008.7 |
| 20260509123306 | 58 | 105 | 0.0 | 0.9 | 0.00 | 0.00 | 0.00 | 83 | 1008.8 |
| 20260509122800 | 58 | 28 | 0.0 | 0.9 | 0.00 | 0.00 | 0.00 | 84 | 1008.9 |
| 20260509122253 | 58 | 158 | 0.0 | 0.0 | 0.00 | 0.00 | 0.00 | 84 | 1008.9 |
| 20260509121747 | 57 | 158 | 0.0 | 0.9 | 0.00 | 0.00 | 0.00 | 85 | 1009.0 |
| 20260509121500 | 57 | 161 | 0.0 | 0.9 | 0.00 | 0.00 | 0.00 | 85 | 1009.1 |
| 20260509120736 | 56 | 80 | 0.0 | 0.9 | 0.00 | 0.00 | 0.00 | 85 | 1009.1 |
| 20260509120229 | 56 | 44 | 0.0 | 1.7 | 0.00 | 0.00 | 0.00 | 86 | 1009.0 |
| 20260509115723 | 56 | 75 | 0.0 | 1.7 | 0.00 | 0.00 | 0.00 | 87 | 1009.0 |
| 20260509115218 | 55 | 39 | 0.0 | 1.7 | 0.00 | 0.00 | 0.00 | 87 | 1008.9 |
| 20260509115157 | 55 | 44 | 0.0 | 0.0 | 0.00 | 0.00 | 0.00 | 88 | 1008.8 |
| 20260509114209 | 55 | 44 | 0.0 | 0.0 | 0.00 | 0.00 | 0.00 | 88 | 1008.8 |
| 20260509113706 | 54 | 42 | 0.0 | 0.9 | 0.00 | 0.00 | 0.00 | 88 | 1008.7 |
| 20260509113205 | 54 | 42 | 0.0 | 0.9 | 0.00 | 0.00 | 0.00 | 88 | 1008.8 |
| 20260509112925 | 54 | 42 | 0.0 | 0.0 | 0.00 | 0.01 | 0.00 | 88 | 1008.7 |
| 20260509112201 | 53 | 42 | 0.0 | 0.0 | 0.00 | 0.01 | 0.00 | 88 | 1008.7 |
| 20260509111659 | 53 | 34 | 0.0 | 0.0 | 0.00 | 0.01 | 0.00 | 88 | 1008.7 |
| 20260509111157 | 53 | 22 | 0.0 | 0.9 | 0.00 | 0.01 | 0.00 | 88 | 1008.8 |
| 20260509110653 | 53 | 22 | 0.0 | 0.9 | 0.00 | 0.01 | 0.00 | 88 | 1008.9 |
| 20260509110151 | 53 | 266 | 0.0 | 0.0 | 0.00 | 0.01 | 0.00 | 88 | 1008.8 |
| 20260509105652 | 53 | 266 | 0.0 | 0.0 | 0.00 | 0.01 | 0.00 | 88 | 1008.7 |
| 20260509105153 | 52 | 266 | 0.0 | 0.0 | 0.00 | 0.01 | 0.00 | 88 | 1008.8 |
| 20260509104651 | 52 | 266 | 0.0 | 0.0 | 0.00 | 0.01 | 0.00 | 87 | 1008.8 |
| 20260509104412 | 52 | 266 | 0.0 | 0.0 | 0.00 | 0.01 | 0.00 | 87 | 1008.8 |
| 20260509103652 | 52 | 266 | 0.0 | 0.0 | 0.00 | 0.01 | 0.00 | 87 | 1008.8 |
| 20260509103152 | 52 | 266 | 0.0 | 0.0 | 0.00 | 0.01 | 0.00 | 87 | 1008.7 |
| 20260509102921 | 52 | 266 | 0.0 | 0.0 | 0.00 | 0.01 | 0.00 | 87 | 1008.6 |
| 20260509102151 | 52 | 266 | 0.0 | 0.0 | 0.00 | 0.01 | 0.00 | 86 | 1008.5 |
| 20260509101652 | 52 | 266 | 0.0 | 0.0 | 0.00 | 0.01 | 0.00 | 86 | 1008.5 |
| 20260509101410 | 52 | 266 | 0.0 | 0.0 | 0.00 | 0.01 | 0.00 | 86 | 1008.5 |
| 20260509100923 | 53 | 266 | 0.0 | 0.0 | 0.00 | 0.01 | 0.00 | 86 | 1008.6 |
| 20260509100151 | 53 | 266 | 0.0 | 0.0 | 0.00 | 0.01 | 0.00 | 85 | 1008.7 |
| 20260509095652 | 53 | 266 | 0.0 | 0.0 | 0.00 | 0.01 | 0.00 | 85 | 1008.6 |
| 20260509095149 | 53 | 266 | 0.0 | 0.0 | 0.00 | 0.01 | 0.00 | 84 | 1008.7 |
| 20260509094647 | 53 | 266 | 0.0 | 0.0 | 0.00 | 0.01 | 0.00 | 84 | 1008.6 |
| 20260509094148 | 53 | 266 | 0.0 | 0.9 | 0.00 | 0.01 | 0.00 | 84 | 1008.7 |
| 20260509093648 | 53 | 266 | 0.0 | 0.9 | 0.00 | 0.01 | 0.00 | 84 | 1008.7 |
| 20260509093406 | 53 | 266 | 0.0 | 0.0 | 0.00 | 0.01 | 0.00 | 84 | 1008.7 |
| 20260509092648 | 53 | 266 | 0.0 | 0.0 | 0.00 | 0.01 | 0.00 | 83 | 1008.8 |
| 20260509092148 | 53 | 266 | 0.0 | 2.6 | 0.00 | 0.01 | 0.00 | 83 | 1008.8 |
| 20260509091649 | 53 | 266 | 0.0 | 2.6 | 0.00 | 0.01 | 0.00 | 83 | 1008.9 |
| 20260509091150 | 53 | 141 | 0.0 | 0.0 | 0.00 | 0.01 | 0.00 | 82 | 1008.8 |
| 20260509090642 | 53 | 141 | 0.0 | 0.0 | 0.00 | 0.01 | 0.00 | 81 | 1008.8 |
| 20260509090137 | 53 | 141 | 0.0 | 0.0 | 0.00 | 0.01 | 0.00 | 81 | 1008.8 |
| 20260509085630 | 54 | 141 | 0.0 | 0.0 | 0.00 | 0.01 | 0.00 | 81 | 1008.8 |
| 20260509085345 | 54 | 141 | 0.0 | 0.0 | 0.00 | 0.01 | 0.00 | 80 | 1008.8 |
| 20260509084839 | 54 | 141 | 0.0 | 0.0 | 0.00 | 0.01 | 0.00 | 80 | 1008.7 |
| 20260509084112 | 54 | 141 | 0.0 | 0.0 | 0.00 | 0.01 | 0.00 | 80 | 1008.7 |
| 20260509083828 | 54 | 141 | 0.0 | 0.0 | 0.00 | 0.01 | 0.00 | 80 | 1008.6 |
| 20260509083107 | 54 | 141 | 0.0 | 0.0 | 0.00 | 0.01 | 0.00 | 79 | 1008.6 |
| 20260509082607 | 54 | 141 | 0.0 | 0.0 | 0.00 | 0.01 | 0.00 | 79 | 1008.5 |
| 20260509082110 | 54 | 141 | 0.0 | 0.0 | 0.00 | 0.01 | 0.00 | 78 | 1008.4 |
| 20260509081608 | 54 | 141 | 0.0 | 0.0 | 0.00 | 0.01 | 0.00 | 78 | 1008.4 |
| 20260509081106 | 55 | 141 | 0.0 | 0.0 | 0.00 | 0.01 | 0.00 | 77 | 1008.4 |
| 20260509080603 | 55 | 141 | 0.0 | 0.0 | 0.00 | 0.01 | 0.00 | 76 | 1008.4 |
| 20260509080103 | 55 | 141 | 0.0 | 0.0 | 0.00 | 0.01 | 0.00 | 76 | 1008.4 |
| 20260509075605 | 55 | 141 | 0.0 | 0.0 | 0.00 | 0.01 | 0.00 | 75 | 1008.6 |
| 20260509075102 | 56 | 141 | 0.0 | 0.0 | 0.00 | 0.01 | 0.00 | 75 | 1008.8 |
| 20260509074559 | 56 | 141 | 0.0 | 0.0 | 0.00 | 0.01 | 0.00 | 75 | 1008.7 |
| 20260509074319 | 56 | 141 | 0.0 | 0.0 | 0.00 | 0.01 | 0.00 | 74 | 1008.7 |
| 20260509073557 | 56 | 141 | 0.0 | 0.0 | 0.00 | 0.01 | 0.00 | 74 | 1008.8 |
| 20260509073054 | 56 | 141 | 0.0 | 0.9 | 0.00 | 0.01 | 0.00 | 74 | 1008.8 |
| 20260509072555 | 56 | 141 | 0.0 | 0.9 | 0.00 | 0.01 | 0.00 | 74 | 1008.7 |
| 20260509072049 | 56 | 186 | 0.0 | 1.7 | 0.00 | 0.01 | 0.00 | 74 | 1008.8 |
| 20260509071810 | 56 | 226 | 0.0 | 1.7 | 0.00 | 0.01 | 0.00 | 74 | 1008.8 |
| 20260509071047 | 56 | 226 | 0.0 | 0.9 | 0.00 | 0.01 | 0.00 | 74 | 1008.8 |
| 20260509070544 | 56 | 226 | 0.0 | 0.9 | 0.00 | 0.01 | 0.00 | 74 | 1008.9 |
| 20260509070044 | 56 | 226 | 0.0 | 0.9 | 0.00 | 0.01 | 0.00 | 74 | 1009.0 |
| 20260509065537 | 56 | 233 | 0.0 | 0.9 | 0.00 | 0.01 | 0.00 | 74 | 1009.1 |
| 20260509065032 | 56 | 233 | 0.0 | 1.7 | 0.00 | 0.01 | 0.00 | 74 | 1009.2 |
| 20260509064525 | 56 | 228 | 0.0 | 1.7 | 0.00 | 0.01 | 0.00 | 74 | 1009.3 |
| 20260509064247 | 56 | 100 | 0.0 | 0.9 | 0.00 | 0.01 | 0.00 | 74 | 1009.4 |
| 20260509063514 | 56 | 79 | 0.0 | 1.7 | 0.00 | 0.01 | 0.00 | 73 | 1009.5 |
| 20260509063008 | 56 | 91 | 0.0 | 1.7 | 0.00 | 0.01 | 0.00 | 73 | 1009.6 |
| 20260509062502 | 56 | 145 | 0.0 | 0.0 | 0.00 | 0.01 | 0.00 | 72 | 1009.7 |
| 20260509061956 | 56 | 145 | 0.0 | 0.0 | 0.00 | 0.01 | 0.00 | 72 | 1009.8 |
| 20260509061450 | 56 | 145 | 0.0 | 0.0 | 0.00 | 0.01 | 0.00 | 71 | 1009.9 |
| 20260509060944 | 56 | 144 | 0.0 | 0.0 | 0.00 | 0.01 | 0.00 | 70 | 1009.9 |
| 20260509060701 | 56 | 144 | 0.0 | 0.0 | 0.00 | 0.01 | 0.00 | 70 | 1009.9 |
| 20260509060427 | 56 | 145 | 0.0 | 0.0 | 0.00 | 0.01 | 0.00 | 69 | 1010.0 |
| 20260509055426 | 56 | 144 | 0.0 | 0.0 | 0.00 | 0.01 | 0.00 | 68 | 1009.9 |
| 20260509054920 | 57 | 144 | 0.0 | 0.9 | 0.00 | 0.01 | 0.00 | 67 | 1009.9 |
| 20260509054414 | 57 | 144 | 0.0 | 0.9 | 0.00 | 0.01 | 0.00 | 67 | 1009.9 |
| 20260509053908 | 57 | 145 | 0.0 | 0.9 | 0.00 | 0.01 | 0.00 | 66 | 1009.9 |
| 20260509053624 | 57 | 144 | 0.0 | 0.9 | 0.00 | 0.01 | 0.00 | 66 | 1009.9 |
| 20260509053119 | 57 | 144 | 0.0 | 0.9 | 0.00 | 0.01 | 0.00 | 65 | 1009.8 |
| 20260509052350 | 57 | 144 | 0.0 | 0.9 | 0.00 | 0.01 | 0.00 | 65 | 1009.7 |
| 20260509051843 | 57 | 139 | 0.0 | 0.9 | 0.00 | 0.01 | 0.00 | 64 | 1009.7 |
| 20260509051338 | 57 | 139 | 0.0 | 0.9 | 0.00 | 0.01 | 0.00 | 64 | 1009.7 |
| 20260509050832 | 57 | 129 | 0.0 | 0.9 | 0.00 | 0.01 | 0.00 | 64 | 1009.7 |
| 20260509050326 | 57 | 129 | 0.0 | 0.9 | 0.00 | 0.01 | 0.00 | 64 | 1009.7 |
| 20260509050046 | 57 | 129 | 0.0 | 0.0 | 0.00 | 0.01 | 0.00 | 64 | 1009.7 |
| 20260509045314 | 57 | 129 | 0.0 | 0.0 | 0.00 | 0.01 | 0.00 | 63 | 1009.6 |
| 20260509044808 | 57 | 129 | 0.0 | 0.0 | 0.00 | 0.01 | 0.00 | 63 | 1009.5 |
| 20260509044258 | 57 | 129 | 0.0 | 0.0 | 0.00 | 0.01 | 0.00 | 63 | 1009.5 |
| 20260509043752 | 58 | 129 | 0.0 | 0.0 | 0.00 | 0.01 | 0.00 | 63 | 1009.5 |
| 20260509043735 | 58 | 129 | 0.0 | 0.0 | 0.00 | 0.01 | 0.00 | 63 | 1009.4 |
| 20260509042740 | 58 | 129 | 0.0 | 0.0 | 0.00 | 0.01 | 0.00 | 61 | 1009.6 |
| 20260509042234 | 59 | 129 | 0.0 | 0.0 | 0.00 | 0.01 | 0.00 | 60 | 1009.5 |
| 20260509041728 | 59 | 129 | 0.0 | 0.0 | 0.00 | 0.01 | 0.00 | 59 | 1009.5 |
| 20260509041224 | 59 | 129 | 0.0 | 0.0 | 0.00 | 0.01 | 0.00 | 59 | 1009.6 |
| 20260509040724 | 60 | 129 | 0.0 | 0.0 | 0.00 | 0.01 | 0.00 | 58 | 1009.7 |
| 20260509040224 | 60 | 129 | 0.0 | 0.9 | 0.00 | 0.01 | 0.00 | 58 | 1009.6 |
| 20260509035942 | 59 | 129 | 0.0 | 0.9 | 0.00 | 0.01 | 0.01 | 57 | 1009.6 |
| 20260509035222 | 60 | 129 | 0.0 | 0.0 | 0.00 | 0.01 | 0.01 | 58 | 1009.7 |
| 20260509034723 | 60 | 129 | 0.0 | 0.9 | 0.00 | 0.01 | 0.01 | 57 | 1009.8 |
| 20260509034221 | 60 | 129 | 0.0 | 0.9 | 0.00 | 0.01 | 0.01 | 56 | 1009.8 |
| 20260509033722 | 60 | 129 | 0.0 | 0.9 | 0.00 | 0.01 | 0.01 | 56 | 1009.8 |
| 20260509033220 | 60 | 129 | 0.0 | 0.9 | 0.00 | 0.01 | 0.01 | 56 | 1010.0 |
| 20260509032718 | 60 | 129 | 0.0 | 0.9 | 0.00 | 0.01 | 0.01 | 56 | 1010.0 |
| 20260509032219 | 60 | 129 | 0.0 | 0.9 | 0.00 | 0.01 | 0.01 | 55 | 1010.0 |
| 20260509031719 | 60 | 52 | 0.0 | 0.9 | 0.00 | 0.01 | 0.01 | 55 | 1009.9 |
| 20260509031215 | 60 | 150 | 0.0 | 0.0 | 0.00 | 0.01 | 0.01 | 55 | 1010.0 |
| 20260509030715 | 60 | 150 | 0.0 | 0.9 | 0.00 | 0.01 | 0.01 | 55 | 1009.9 |
| 20260509030216 | 60 | 150 | 0.0 | 0.9 | 0.00 | 0.01 | 0.01 | 54 | 1009.8 |
| 20260509025714 | 60 | 150 | 0.0 | 0.9 | 0.00 | 0.01 | 0.01 | 54 | 1009.8 |
| 20260509025212 | 60 | 217 | 0.0 | 0.9 | 0.00 | 0.01 | 0.01 | 53 | 1010.0 |
| 20260509024934 | 60 | 219 | 0.0 | 0.0 | 0.00 | 0.01 | 0.01 | 53 | 1009.9 |
| 20260509024208 | 60 | 219 | 0.0 | 0.9 | 0.00 | 0.01 | 0.01 | 53 | 1009.9 |
| 20260509023928 | 60 | 219 | 0.0 | 0.9 | 0.00 | 0.01 | 0.01 | 52 | 1010.0 |
| 20260509023204 | 60 | 219 | 0.0 | 0.9 | 0.00 | 0.01 | 0.01 | 52 | 1009.9 |
| 20260509022659 | 60 | 219 | 0.0 | 0.9 | 0.00 | 0.01 | 0.01 | 51 | 1009.9 |
| 20260509022158 | 61 | 219 | 0.0 | 0.9 | 0.00 | 0.01 | 0.01 | 50 | 1009.9 |
| 20260509022152 | 60 | 219 | 0.0 | 0.9 | 0.00 | 0.01 | 0.01 | 50 | 1009.9 |
| 20260509021359 | 61 | 141 | 0.0 | 0.9 | 0.00 | 0.01 | 0.01 | 50 | 1010.0 |
| 20260509020634 | 61 | 141 | 0.0 | 0.0 | 0.00 | 0.01 | 0.01 | 50 | 1010.0 |
| 20260509020128 | 61 | 57 | 0.0 | 0.0 | 0.00 | 0.01 | 0.01 | 49 | 1009.9 |
| 20260509015621 | 61 | 56 | 0.0 | 0.0 | 0.00 | 0.01 | 0.01 | 49 | 1009.7 |
| 20260509015113 | 61 | 56 | 0.0 | 0.0 | 0.00 | 0.01 | 0.01 | 48 | 1009.7 |
| 20260509014612 | 61 | 57 | 0.0 | 0.0 | 0.00 | 0.01 | 0.01 | 48 | 1009.8 |
| 20260509014058 | 62 | 56 | 0.0 | 0.0 | 0.00 | 0.01 | 0.01 | 47 | 1009.8 |
| 20260509013552 | 62 | 56 | 0.0 | 0.9 | 0.00 | 0.01 | 0.01 | 47 | 1009.7 |
| 20260509013320 | 62 | 56 | 0.0 | 0.9 | 0.00 | 0.01 | 0.01 | 47 | 1009.6 |
| 20260509012541 | 62 | 44 | 0.0 | 0.0 | 0.00 | 0.01 | 0.01 | 47 | 1009.6 |
| 20260509012034 | 62 | 44 | 0.0 | 0.0 | 0.00 | 0.01 | 0.01 | 47 | 1009.5 |
| 20260509011528 | 62 | 44 | 0.0 | 0.0 | 0.00 | 0.01 | 0.01 | 47 | 1009.4 |
| 20260509011220 | 63 | 44 | 0.0 | 0.0 | 0.00 | 0.01 | 0.01 | 46 | 1009.4 |
| 20260509011108 | 62 | 44 | 0.0 | 0.0 | 0.00 | 0.01 | 0.01 | 47 | 1009.5 |
| 20260509010010 | 63 | 44 | 0.0 | 0.0 | 0.00 | 0.01 | 0.01 | 46 | 1009.4 |
| 20260509005728 | 63 | 44 | 0.0 | 0.9 | 0.00 | 0.01 | 0.01 | 46 | 1009.5 |
| 20260509004957 | 64 | 44 | 0.0 | 0.9 | 0.00 | 0.01 | 0.01 | 45 | 1009.4 |
| 20260509004451 | 64 | 46 | 0.0 | 0.9 | 0.00 | 0.01 | 0.01 | 45 | 1009.4 |
| 20260509003946 | 64 | 46 | 0.0 | 0.9 | 0.00 | 0.01 | 0.01 | 44 | 1009.5 |
| 20260509003440 | 65 | 46 | 0.0 | 0.0 | 0.00 | 0.01 | 0.01 | 44 | 1009.4 |
| 20260509002934 | 65 | 41 | 0.0 | 0.9 | 0.00 | 0.01 | 0.01 | 44 | 1009.3 |
| 20260509002428 | 65 | 41 | 0.0 | 0.9 | 0.00 | 0.01 | 0.01 | 43 | 1009.3 |
| 20260509001922 | 65 | 41 | 0.0 | 0.9 | 0.00 | 0.01 | 0.01 | 43 | 1009.3 |
| 20260509001415 | 66 | 31 | 0.0 | 0.9 | 0.00 | 0.01 | 0.01 | 43 | 1009.3 |
| 20260509000910 | 66 | 30 | 0.0 | 0.9 | 0.00 | 0.01 | 0.01 | 42 | 1009.3 |
| 20260509000403 | 66 | 231 | 0.0 | 0.9 | 0.00 | 0.01 | 0.01 | 42 | 1009.3 |
| 20260508235858 | 67 | 233 | 0.0 | 0.9 | 0.00 | 0.01 | 0.01 | 41 | 1009.2 |
| 20260508235616 | 67 | 233 | 0.0 | 0.9 | 0.00 | 0.01 | 0.01 | 41 | 1009.1 |
| 20260508234846 | 67 | 131 | 0.0 | 2.6 | 0.00 | 0.01 | 0.01 | 40 | 1009.0 |
| 20260508234340 | 68 | 237 | 0.0 | 2.6 | 0.00 | 0.01 | 0.01 | 40 | 1008.9 |
| 20260508233833 | 68 | 164 | 0.0 | 0.9 | 0.00 | 0.01 | 0.01 | 39 | 1008.9 |
| 20260508233328 | 68 | 164 | 0.0 | 0.9 | 0.00 | 0.01 | 0.01 | 38 | 1008.9 |
| 20260508232822 | 69 | 222 | 0.0 | 0.9 | 0.00 | 0.01 | 0.01 | 38 | 1008.8 |
| 20260508232315 | 69 | 75 | 0.0 | 1.7 | 0.00 | 0.01 | 0.01 | 38 | 1008.8 |
| 20260508231810 | 69 | 307 | 0.0 | 1.7 | 0.00 | 0.01 | 0.01 | 38 | 1008.7 |
| 20260508231304 | 69 | 238 | 0.0 | 2.6 | 0.00 | 0.01 | 0.01 | 37 | 1008.7 |
| 20260508230757 | 70 | 19 | 0.0 | 2.6 | 0.00 | 0.01 | 0.01 | 37 | 1008.7 |
| 20260508230252 | 70 | 43 | 0.0 | 1.7 | 0.00 | 0.01 | 0.01 | 37 | 1008.8 |
| 20260508225746 | 70 | 89 | 0.0 | 1.7 | 0.00 | 0.01 | 0.01 | 34 | 1008.7 |
| 20260508225240 | 71 | 162 | 0.0 | 1.7 | 0.00 | 0.01 | 0.01 | 35 | 1008.7 |
| 20260508224734 | 71 | 200 | 0.0 | 0.9 | 0.00 | 0.01 | 0.01 | 37 | 1008.7 |
| 20260508224229 | 71 | 146 | 0.0 | 0.9 | 0.00 | 0.01 | 0.01 | 36 | 1008.7 |
| 20260508223722 | 72 | 120 | 0.0 | 0.9 | 0.00 | 0.01 | 0.01 | 36 | 1008.7 |
| 20260508223215 | 72 | 156 | 0.9 | 3.5 | 0.00 | 0.01 | 0.01 | 35 | 1008.7 |
| 20260508222709 | 72 | 304 | 0.9 | 4.3 | 0.00 | 0.01 | 0.01 | 33 | 1008.8 |
| 20260508222204 | 72 | 144 | 0.9 | 5.2 | 0.00 | 0.01 | 0.01 | 34 | 1008.9 |
| 20260508221658 | 73 | 30 | 0.9 | 5.2 | 0.00 | 0.01 | 0.01 | 33 | 1008.9 |
| 20260508221152 | 73 | 236 | 0.9 | 4.3 | 0.00 | 0.01 | 0.01 | 32 | 1009.0 |
| 20260508220646 | 74 | 233 | 0.9 | 3.5 | 0.00 | 0.01 | 0.01 | 33 | 1009.0 |
| 20260508220143 | 75 | 49 | 0.0 | 1.7 | 0.00 | 0.01 | 0.01 | 32 | 1009.0 |
| 20260508215643 | 75 | 103 | 0.0 | 1.7 | 0.00 | 0.01 | 0.01 | 32 | 1009.0 |
| 20260508215625 | 76 | 164 | 0.0 | 1.7 | 0.00 | 0.01 | 0.01 | 32 | 1009.0 |
| 20260508214645 | 77 | 41 | 0.0 | 1.7 | 0.00 | 0.01 | 0.01 | 30 | 1009.0 |
| 20260508214349 | 76 | 205 | 0.9 | 3.5 | 0.00 | 0.01 | 0.01 | 30 | 1009.1 |
| 20260508214238 | 76 | 94 | 0.0 | 1.7 | 0.00 | 0.01 | 0.01 | 30 | 1009.0 |
| 20260508213140 | 76 | 44 | 0.9 | 3.5 | 0.00 | 0.01 | 0.01 | 31 | 1009.1 |
| 20260508212639 | 77 | 210 | 0.9 | 3.5 | 0.00 | 0.01 | 0.01 | 29 | 1009.1 |
| 20260508212138 | 77 | 215 | 0.0 | 1.7 | 0.00 | 0.01 | 0.01 | 30 | 1009.0 |
| 20260508211636 | 76 | 215 | 0.0 | 3.5 | 0.00 | 0.01 | 0.01 | 31 | 1009.0 |
| 20260508211135 | 76 | 219 | 0.9 | 3.5 | 0.00 | 0.01 | 0.01 | 29 | 1009.0 |
| 20260508210900 | 75 | 210 | 0.9 | 5.2 | 0.00 | 0.01 | 0.01 | 30 | 1009.0 |
| 20260508210736 | 76 | 297 | 0.9 | 5.2 | 0.00 | 0.01 | 0.01 | 31 | 1009.1 |
| 20260508205636 | 75 | 176 | 0.9 | 5.2 | 0.00 | 0.01 | 0.01 | 32 | 1009.1 |
| 20260508205134 | 75 | 224 | 0.9 | 5.2 | 0.00 | 0.02 | 0.01 | 30 | 1009.2 |
| 20260508204857 | 75 | 193 | 0.9 | 5.2 | 0.00 | 0.02 | 0.01 | 31 | 1009.3 |
| 20260508204404 | 75 | 193 | 0.9 | 3.5 | 0.00 | 0.04 | 0.01 | 30 | 1009.2 |
| 20260508203635 | 75 | 343 | 0.9 | 4.3 | 0.00 | 0.05 | 0.01 | 30 | 1009.2 |
| 20260508203135 | 75 | 1 | 0.9 | 4.3 | 0.00 | 0.06 | 0.01 | 30 | 1009.3 |
| 20260508202636 | 76 | 214 | 0.9 | 3.5 | 0.00 | 0.08 | 0.01 | 31 | 1009.3 |
| 20260508202134 | 76 | 144 | 0.9 | 4.3 | 0.00 | 0.09 | 0.01 | 31 | 1009.3 |
| 20260508201634 | 77 | 69 | 0.0 | 4.3 | 0.00 | 0.09 | 0.01 | 29 | 1009.4 |
| 20260508201136 | 76 | 158 | 0.0 | 2.6 | 0.00 | 0.11 | 0.01 | 32 | 1009.3 |
| 20260508200636 | 76 | 186 | 0.0 | 2.6 | 0.00 | 0.12 | 0.01 | 34 | 1009.4 |
| 20260508200135 | 75 | 211 | 0.9 | 4.3 | 0.00 | 0.13 | 0.01 | 33 | 1009.5 |
| 20260508195636 | 74 | 345 | 0.9 | 4.3 | 0.00 | 0.13 | 0.01 | 33 | 1009.6 |
| 20260508195353 | 74 | 195 | 0.9 | 5.2 | 0.00 | 0.13 | 0.01 | 36 | 1009.5 |
| 20260508194632 | 74 | 276 | 0.9 | 6.1 | 0.00 | 0.13 | 0.01 | 31 | 1009.7 |
| 20260508194132 | 74 | 225 | 0.9 | 6.1 | 0.00 | 0.13 | 0.01 | 32 | 1009.8 |
| 20260508193631 | 75 | 203 | 0.9 | 2.6 | 0.00 | 0.13 | 0.01 | 31 | 1009.8 |
| 20260508193358 | 75 | 191 | 0.9 | 3.5 | 0.00 | 0.13 | 0.01 | 34 | 1009.9 |
| 20260508192631 | 74 | 162 | 0.9 | 3.5 | 0.00 | 0.13 | 0.01 | 32 | 1009.9 |